TimeEST,TemperatureF,Dew PointF,Humidity,Sea Level PressureIn,VisibilityMPH,Wind Direction,Wind SpeedMPH,Gust SpeedMPH,PrecipitationIn,Events,Conditions,WindDirDegrees,DateUTC
12:27 AM,42.8,35.6,76,30.38,10.0,Calm,Calm,-,N/A,,Overcast,0,2013-01-09 05:27:00
12:54 AM,43.0,36.0,76,30.40,10.0,Calm,Calm,-,N/A,,Overcast,0,2013-01-09 05:54:00
1:54 AM,43.0,35.1,74,30.40,10.0,Calm,Calm,-,N/A,,Overcast,0,2013-01-09 06:54:00
2:54 AM,42.1,36.0,79,30.41,10.0,Calm,Calm,-,N/A,,Overcast,0,2013-01-09 07:54:00
3:54 AM,43.0,37.0,80,30.40,10.0,SE,4.6,-,N/A,,Overcast,130,2013-01-09 08:54:00
4:54 AM,39.9,35.1,83,30.39,10.0,Calm,Calm,-,N/A,,Partly Cloudy,0,2013-01-09 09:54:00
5:54 AM,39.9,34.0,79,30.39,10.0,Calm,Calm,-,N/A,,Partly Cloudy,0,2013-01-09 10:54:00
6:54 AM,37.9,34.0,86,30.40,10.0,Calm,Calm,-,N/A,,Scattered Clouds,0,2013-01-09 11:54:00
7:54 AM,39.0,35.1,86,30.41,9.0,Calm,Calm,-,N/A,,Mostly Cloudy,0,2013-01-09 12:54:00
8:54 AM,46.9,39.9,77,30.41,10.0,South,6.9,-,N/A,,Scattered Clouds,190,2013-01-09 13:54:00
9:54 AM,54.0,41.0,62,30.42,10.0,SW,6.9,-,N/A,,Scattered Clouds,220,2013-01-09 14:54:00
10:54 AM,60.1,43.0,53,30.41,10.0,WSW,11.5,-,N/A,,Scattered Clouds,240,2013-01-09 15:54:00
11:54 AM,63.0,46.9,56,30.37,10.0,WSW,10.4,-,N/A,,Mostly Cloudy,250,2013-01-09 16:54:00
12:54 PM,64.0,48.0,56,30.33,10.0,SW,11.5,-,N/A,,Overcast,230,2013-01-09 17:54:00
1:54 PM,66.9,48.9,52,30.31,10.0,SSW,10.4,-,N/A,,Overcast,210,2013-01-09 18:54:00
2:54 PM,66.0,50.0,56,30.33,10.0,SW,11.5,-,N/A,,Overcast,220,2013-01-09 19:54:00
3:54 PM,64.9,50.0,58,30.34,10.0,WSW,6.9,-,N/A,,Overcast,240,2013-01-09 20:54:00
4:54 PM,62.1,50.0,65,30.31,10.0,South,9.2,-,N/A,,Mostly Cloudy,190,2013-01-09 21:54:00
5:54 PM,61.0,50.0,67,30.31,10.0,SSW,9.2,-,N/A,,Mostly Cloudy,210,2013-01-09 22:54:00
6:54 PM,60.1,50.0,69,30.32,10.0,SSW,6.9,-,N/A,,Mostly Cloudy,210,2013-01-09 23:54:00
7:54 PM,59.0,50.0,72,30.34,10.0,WSW,5.8,-,N/A,,Scattered Clouds,240,2013-01-10 00:54:00
8:54 PM,57.9,50.0,75,30.35,10.0,WSW,6.9,-,N/A,,Scattered Clouds,250,2013-01-10 01:54:00
9:54 PM,57.0,50.0,77,30.37,10.0,West,5.8,-,N/A,,Partly Cloudy,260,2013-01-10 02:54:00
10:54 PM,54.0,48.9,83,30.38,10.0,WSW,5.8,-,N/A,,Partly Cloudy,250,2013-01-10 03:54:00
11:54 PM,54.0,48.9,83,30.40,10.0,WSW,4.6,-,N/A,,Partly Cloudy,240,2013-01-10 04:54:00